#datint,netname,site,siteID,timestamp,IntT,BattV,AirT2,AirT,AirT_Avg,AirT_Max,AirT_Min,RH_Avg,RH_Max,RH_Min,EA_Avg,Td_Avg,Td_Max,Td_Min,WindS_Smp,WindS_Avg,WindD_Avg,WindD_SD,WindS_Max,ETo,ETr,SoilT4,SoilT8,SoilVWC8,SolarW_Avg,wetstate_Avg,wetT_Avg,Precip_accum,Precip_WPG,Precip_TB
15min,AgWx,beryljct,423,20JAN2018:00:00:00,47.1,12.88,46.4,46.6,47.1,47.9,46.5,46,47,44,0.506,27.2,27.5,26.8,7.936,10.1,169,14,14.0,0.00038,0.00047,41.1,40.5,21,0,0,46.4,11.84,0.00,0.00
15min,AgWx,beryljct,423,20JAN2018:00:15:00,46.8,12.88,45.6,45.7,46.1,46.7,45.6,48,49,47,0.510,27.5,27.7,27.2,7.3,8.1,169,11,10.5,0.00029,0.00038,41.0,40.5,21,0,0,45.4,11.84,0.00,0.00
15min,AgWx,beryljct,423,20JAN2018:00:30:00,46.3,12.87,44.8,45.0,45.4,45.8,44.9,50,51,49,0.514,27.7,27.9,27.5,5.196,6.5,173,8.1,8.6,0.00022,0.00029,40.9,40.5,21,0,0,44.7,11.84,0.00,0.00
15min,AgWx,beryljct,423,20JAN2018:00:45:00,45.8,12.86,44.7,44.9,45.0,45.3,44.7,51,51,50,0.519,27.8,28.1,27.6,6.182,6.0,172,7.8,8.0,0.00019,0.00026,40.9,40.5,21,0,0,44.4,11.84,0.00,0.00
15min,AgWx,beryljct,423,20JAN2018:01:00:00,45.4,12.86,44.7,45.0,45.1,45.3,44.8,51,52,50,0.526,28.0,28.3,27.7,5.744,6.5,167,7.0,7.7,0.00021,0.00028,40.8,40.6,21,0,0,44.5,11.84,0.00,0.00
15min,AgWx,beryljct,423,20JAN2018:01:15:00,45.1,12.87,44.8,44.9,45.0,45.2,44.7,51,52,51,0.525,28.2,28.3,28.0,4.735,5.1,169,7.4,7.1,0.00014,0.00021,40.8,40.6,21,0,0,44.5,11.84,0.00,0.00
15min,AgWx,beryljct,423,20JAN2018:01:30:00,44.9,12.86,45.2,45.4,45.1,45.4,44.6,52,52,51,0.529,28.3,28.5,27.9,3.902,4.2,169,7.9,5.6,0.00010,0.00016,40.8,40.6,21,0,0,44.5,11.84,0.00,0.00
15min,AgWx,beryljct,423,20JAN2018:01:45:00,44.3,12.85,35.6,35.9,40.6,45.4,35.7,61,72,51,0.516,28.0,29.2,27.0,15.96,9.7,88,36,18.0,0.00021,0.00026,40.6,40.5,21,0,0,41.2,11.84,0.00,0.00
15min,AgWx,beryljct,423,20JAN2018:02:00:00,42.4,12.85,34.6,34.8,35.2,35.8,34.6,74,76,72,0.516,27.7,28.0,27.4,14.47,14.6,53,8.2,18.8,0.00013,0.00015,40.6,40.5,21,0,0,36.1,11.84,0.00,0.00
15min,AgWx,beryljct,423,20JAN2018:02:15:00,40.8,12.84,33.9,34.2,34.5,34.9,34.0,77,79,75,0.523,28.0,28.3,27.7,15.92,14.2,50,10,18.2,0.00010,0.00012,40.5,40.6,21,0,0,35.3,11.84,0.00,0.00
15min,AgWx,beryljct,423,20JAN2018:02:30:00,39.4,12.83,33.3,33.7,33.9,34.3,33.5,79,80,78,0.523,28.1,28.3,27.8,12.25,16.0,48,8.1,23.2,0.00009,0.00011,40.4,40.5,21,0,0,35.5,11.84,0.00,0.00
15min,AgWx,beryljct,423,20JAN2018:02:45:00,38.4,12.82,33.1,33.3,33.4,33.7,33.1,81,81,80,0.522,28.0,28.3,27.8,16.77,17.5,46,8.7,24.3,0.00009,0.00010,40.2,40.5,21,0,0,35.8,11.84,0.00,0.00
15min,AgWx,beryljct,423,20JAN2018:03:00:00,37.5,12.81,32.8,33.3,33.2,33.4,33.0,80,81,80,0.517,27.9,28.2,27.5,18.63,18.4,49,9.0,27.9,0.00009,0.00010,40.1,40.5,21,0,0,35.8,11.84,0.00,0.00
15min,AgWx,beryljct,423,20JAN2018:03:15:00,36.8,12.81,32.7,33.1,33.0,33.2,32.8,80,81,80,0.508,27.5,27.8,27.2,17.16,16.5,53,7.5,23.7,0.00008,0.00010,39.9,40.6,21,0,0,35.5,11.84,0.00,0.00
15min,AgWx,beryljct,423,20JAN2018:03:30:00,36.3,12.8,32.8,33.0,33.0,33.3,32.8,80,80,79,0.509,27.5,27.7,27.2,16.16,16.9,51,7.3,22.3,0.00009,0.00010,39.8,40.5,20,0,0,35.5,11.84,0.00,0.00
15min,AgWx,beryljct,423,20JAN2018:03:45:00,35.9,12.78,32.6,32.9,33.0,33.2,32.8,79,80,79,0.505,27.4,27.6,27.1,12.41,15.1,47,9.7,21.6,0.00008,0.00010,39.5,40.6,21,0,0,35.6,11.85,0.00,0.00
15min,AgWx,beryljct,423,20JAN2018:04:00:00,35.5,12.79,32.4,32.8,33.0,33.2,32.8,81,84,79,0.531,27.7,28.6,27.1,13.5,14.1,46,8.7,18.1,0.00007,0.00008,39.5,40.5,20,0,0,35.5,11.85,0.00,0.00
15min,AgWx,beryljct,423,20JAN2018:04:15:00,35.1,12.66,31.5,31.9,32.4,32.9,31.9,84,84,83,0.510,28.1,28.7,27.4,15.65,12.8,41,9.0,17.2,0.00004,0.00005,39.3,40.5,21,0,0,35.3,11.85,0.00,0.00
15min,AgWx,beryljct,423,20JAN2018:04:30:00,34.7,12.77,31.0,31.4,31.7,32.0,31.3,84,84,83,0.500,27.3,27.6,26.9,8.9,9.2,46,15,14.8,0.00002,0.00003,39.1,40.5,21,0,0,35.6,11.85,0.01,0.00
15min,AgWx,beryljct,423,20JAN2018:04:45:00,34.2,12.76,30.2,30.5,31.0,31.5,30.4,84,84,83,0.480,26.6,27.2,25.9,13.81,11.4,41,11,15.7,0.00003,0.00004,38.9,40.5,21,0,0,35.2,11.87,0.02,0.00
15min,AgWx,beryljct,423,20JAN2018:05:00:00,33.7,12.75,30.0,30.4,30.4,30.6,30.1,83,84,83,0.476,26.0,26.2,25.6,12.17,11.4,51,11,15.3,0.00003,0.00004,38.8,40.4,21,0,0,35.8,11.91,0.03,0.00
15min,AgWx,beryljct,423,20JAN2018:05:15:00,33.3,12.74,30.0,30.3,30.4,30.9,30.1,83,83,83,0.474,25.9,26.3,25.6,10.46,9.3,46,10,13.7,0.00002,0.00003,38.6,40.4,21,0,0,35.6,11.91,0.00,0.00
15min,AgWx,beryljct,423,20JAN2018:05:30:00,33.0,12.61,29.7,30.1,30.1,30.4,29.9,83,83,83,0.469,25.7,25.9,25.4,8.2,6.0,33,19,11.1,-0.00002,-0.00001,38.4,40.4,21,0,3,35.3,11.92,0.01,0.00
15min,AgWx,beryljct,423,20JAN2018:05:45:00,32.7,12.71,29.4,29.8,29.9,30.1,29.5,83,83,83,0.464,25.4,25.7,25.0,12.91,9.5,40,12,13.4,0.00002,0.00003,38.4,40.3,21,0,100,35.3,11.92,0.01,0.00
15min,AgWx,beryljct,423,20JAN2018:06:00:00,32.5,12.71,29.3,29.4,29.6,29.9,29.3,83,83,83,0.454,25.1,25.4,24.8,13.64,9.1,40,10,13.6,0.00002,0.00003,38.3,40.3,21,0,100,35.5,11.93,0.01,0.00
15min,AgWx,beryljct,423,20JAN2018:06:15:00,32.2,12.7,29.0,29.0,29.4,29.6,29.0,83,83,83,0.448,24.8,25.1,24.4,12.32,8.9,38,12,15.6,0.00001,0.00003,38.1,40.3,21,0,100,35.3,11.94,0.01,0.00
15min,AgWx,beryljct,423,20JAN2018:06:30:00,31.9,12.68,28.4,28.5,28.9,29.2,28.5,83,84,83,0.443,24.4,24.7,24.2,12.3,13.1,26,10,17.7,0.00004,0.00005,38.0,40.3,21,0,100,35.0,11.94,0.00,0.00
15min,AgWx,beryljct,423,20JAN2018:06:45:00,31.7,12.54,28.2,28.7,28.7,28.9,28.4,83,83,83,0.444,24.2,24.5,23.9,11.38,11.7,21,6.4,13.8,0.00003,0.00004,37.8,40.2,21,0,100,35.1,11.95,0.01,0.00
15min,AgWx,beryljct,423,20JAN2018:07:00:00,31.5,12.53,28.1,28.4,28.5,28.7,28.2,83,84,83,0.440,24.1,24.3,23.8,11.09,10.6,22,7.2,14.0,0.00019,0.00033,37.8,40.2,21,0,100,35.1,11.96,0.01,0.00
15min,AgWx,beryljct,423,20JAN2018:07:15:00,31.2,12.65,28.0,28.2,28.4,28.5,28.1,83,83,83,0.437,24.0,24.2,23.7,12.63,10.7,21,5.4,13.1,0.00019,0.00033,37.6,40.2,21,0,100,35.3,11.97,0.01,0.00
15min,AgWx,beryljct,423,20JAN2018:07:30:00,31.0,12.69,27.6,27.9,28.1,28.4,27.7,83,84,83,0.432,23.7,24.0,23.3,15.06,10.5,17,12,15.1,0.00019,0.00032,37.5,40.1,21,0,100,35.9,11.98,0.01,0.00
15min,AgWx,beryljct,423,20JAN2018:07:45:00,30.6,12.69,27.4,27.4,27.6,27.9,27.3,84,84,83,0.424,23.2,23.5,22.9,8.37,12.0,20,8.7,18.9,0.00020,0.00035,37.5,40.1,21,0,54,35.5,11.98,0.00,0.00
15min,AgWx,beryljct,423,20JAN2018:08:00:00,30.3,12.68,27.2,27.2,27.4,27.5,27.1,84,84,84,0.419,23.1,23.2,22.8,7.19,11.4,21,8.8,15.7,0.00019,0.00033,37.4,40.0,21,2,62,35.4,11.98,0.00,0.00
15min,AgWx,beryljct,423,20JAN2018:08:15:00,30.1,12.66,27.0,27.0,27.3,27.5,27.0,84,84,84,0.417,23.0,23.2,22.8,8.57,8.1,22,11,11.4,0.00016,0.00027,37.3,40.0,21,4,100,35.5,11.99,0.01,0.00
15min,AgWx,beryljct,423,20JAN2018:08:30:00,29.9,12.54,27.0,27.0,27.2,27.6,27.0,84,84,84,0.416,23.0,23.3,22.7,7.037,7.5,24,7.9,10.9,0.00020,0.00031,37.3,39.9,20,22,100,35.4,12.00,0.01,0.00
15min,AgWx,beryljct,423,20JAN2018:08:45:00,29.9,12.67,26.9,27.0,27.1,27.2,26.9,84,84,84,0.416,22.9,23.0,22.6,7.212,6.8,25,7.2,9.6,0.00024,0.00035,37.1,39.9,21,37,100,35.5,12.01,0.01,0.00
15min,AgWx,beryljct,423,20JAN2018:09:00:00,29.8,12.68,27.0,27.2,27.0,27.2,26.9,84,84,84,0.421,22.8,23.0,22.6,3.836,5.0,32,14,7.8,0.00018,0.00026,37.0,39.8,20,23,100,36.0,12.01,0.01,0.00
15min,AgWx,beryljct,423,20JAN2018:09:15:00,29.8,12.68,26.9,27.1,27.1,27.2,26.8,84,84,84,0.418,22.8,23.0,22.5,5.064,5.7,48,7.8,8.1,0.00024,0.00034,37.0,39.9,21,42,100,35.9,12.02,0.01,0.00
15min,AgWx,beryljct,423,20JAN2018:09:30:00,29.9,12.71,26.9,27.2,27.1,27.3,26.9,84,84,84,0.421,22.9,23.0,22.6,6.818,5.8,39,7.0,8.2,0.00031,0.00041,36.9,39.8,21,64,23,35.9,12.04,0.02,0.00
15min,AgWx,beryljct,423,20JAN2018:09:45:00,30.1,12.77,27.5,27.3,27.3,27.5,27.0,84,84,84,0.422,23.0,23.2,22.7,10.06,7.4,54,12,10.9,0.00052,0.00065,36.9,39.7,20,151,0,36.0,12.05,0.01,0.00
15min,AgWx,beryljct,423,20JAN2018:10:00:00,30.6,12.76,27.4,27.5,27.4,27.8,27.1,84,84,84,0.425,23.2,23.4,22.8,8,8.3,37,13,12.2,0.00059,0.00073,36.8,39.7,21,179,0,35.7,12.05,0.00,0.00
15min,AgWx,beryljct,423,20JAN2018:10:15:00,31.1,12.76,27.6,27.5,27.5,27.7,27.2,84,84,84,0.423,23.2,23.4,22.9,5.196,7.0,25,6.9,10.0,0.00056,0.00069,36.7,39.7,21,159,0,35.5,12.05,0.00,0.00
15min,AgWx,beryljct,423,20JAN2018:10:30:00,31.6,12.8,28.2,28.1,28.0,28.5,27.6,84,84,83,0.434,23.7,24.1,23.2,6.292,4.7,45,19,6.8,0.00070,0.00082,36.7,39.6,21,208,0,37.5,12.05,0.00,0.00
15min,AgWx,beryljct,423,20JAN2018:10:45:00,32.3,12.84,28.0,27.9,27.9,28.2,27.6,84,84,83,0.432,23.6,23.8,23.3,5.875,6.9,50,13,9.7,0.00084,0.00099,36.7,39.5,20,280,0,39.6,12.05,0.00,0.00
15min,AgWx,beryljct,423,20JAN2018:11:00:00,32.9,12.9,29.1,28.7,28.2,28.7,27.7,84,84,83,0.445,23.9,24.3,23.4,8.51,5.7,42,10,9.0,0.00094,0.00108,36.6,39.5,21,310,0,41.6,12.05,0.00,0.00
15min,AgWx,beryljct,423,20JAN2018:11:15:00,33.4,12.97,29.0,28.3,28.5,28.7,28.3,83,84,83,0.438,24.1,24.3,23.9,6.27,7.8,52,7.9,10.2,0.00094,0.00110,36.4,39.5,21,319,0,41.7,12.05,0.00,0.00
15min,AgWx,beryljct,423,20JAN2018:11:30:00,33.7,13.04,28.6,28.1,28.3,28.7,27.9,83,84,83,0.434,23.9,24.3,23.5,8.33,9.1,55,7.5,12.1,0.00082,0.00098,36.5,39.5,21,271,0,39.1,12.05,0.00,0.00
15min,AgWx,beryljct,423,20JAN2018:11:45:00,33.8,13.16,28.8,28.2,28.0,28.2,27.7,84,84,83,0.437,23.7,23.8,23.3,7.738,8.8,47,8.8,12.0,0.00083,0.00099,36.4,39.5,20,278,0,38.7,12.05,0.00,0.00
15min,AgWx,beryljct,423,20JAN2018:12:00:00,34.0,13.49,28.8,27.9,28.1,28.5,27.7,84,84,83,0.432,23.7,24.1,23.4,11.73,10.3,49,6.9,13.9,0.00094,0.00111,36.4,39.4,20,343,0,40.1,12.05,0.00,0.00
15min,AgWx,beryljct,423,20JAN2018:12:15:00,34.2,13.68,28.3,27.9,28.0,28.3,27.6,84,84,84,0.431,23.7,23.9,23.3,8.35,9.7,49,8.5,13.1,0.00087,0.00104,36.3,39.4,21,304,0,39.9,12.05,0.00,0.00
15min,AgWx,beryljct,423,20JAN2018:12:30:00,34.2,13.73,28.1,27.7,27.7,28.2,26.9,84,84,84,0.430,23.4,23.8,22.6,6.489,9.0,36,9.0,12.3,0.00077,0.00093,36.2,39.3,20,256,43,37.2,12.05,0.00,0.00
15min,AgWx,beryljct,423,20JAN2018:12:45:00,34.2,13.94,28.7,28.2,27.9,28.2,27.6,84,84,84,0.436,23.5,23.9,23.2,8.11,7.3,36,9.9,9.8,0.00090,0.00105,36.2,39.2,21,308,100,36.8,12.06,0.00,0.00
15min,AgWx,beryljct,423,20JAN2018:13:00:00,34.5,13.94,28.3,28.0,28.0,28.2,27.7,84,84,84,0.433,23.7,23.9,23.3,9.65,8.2,34,9.0,10.3,0.00101,0.00118,36.2,39.2,21,369,36,40.3,12.05,0.00,0.00
15min,AgWx,beryljct,423,20JAN2018:13:15:00,34.6,14.08,28.4,28.3,28.0,28.3,27.7,84,84,83,0.439,23.7,24.0,23.4,6.423,7.4,25,8.5,9.4,0.00093,0.00108,36.2,39.1,21,329,91,37.8,12.06,0.00,0.00
15min,AgWx,beryljct,423,20JAN2018:13:30:00,34.9,14.29,28.8,28.9,28.9,29.4,28.3,83,84,83,0.448,24.5,24.9,23.9,6.511,7.6,37,10,10.0,0.00129,0.00147,36.1,39.1,21,489,100,38.9,12.06,0.00,0.00
15min,AgWx,beryljct,423,20JAN2018:13:45:00,35.3,14.22,29.4,29.3,29.2,29.5,28.8,83,83,83,0.454,24.8,25.0,24.3,10.02,8.4,42,7.6,10.9,0.00117,0.00135,36.0,39.1,21,450,100,39.2,12.06,0.00,0.00
15min,AgWx,beryljct,423,20JAN2018:14:00:00,35.3,13.79,27.7,27.3,28.1,29.3,27.3,83,84,83,0.421,23.7,24.8,23.0,11.79,11.8,27,12,17.3,0.00063,0.00080,36.0,39.0,21,210,100,35.7,12.06,0.00,0.00
15min,AgWx,beryljct,423,20JAN2018:14:15:00,34.7,14.17,27.8,27.5,27.4,28.0,27.1,84,84,84,0.426,23.1,23.7,22.8,8.79,12.5,22,6.4,16.0,0.00065,0.00082,36.0,39.0,21,242,100,36.0,12.06,0.00,0.00
15min,AgWx,beryljct,423,20JAN2018:14:30:00,34.3,14.75,28.1,27.7,27.7,27.9,27.4,84,84,83,0.429,23.3,23.6,23.1,8.09,8.9,16,8.6,11.9,0.00081,0.00096,35.9,39.0,21,332,100,37.0,12.06,0.00,0.00
15min,AgWx,beryljct,423,20JAN2018:14:45:00,34.4,14.75,28.6,27.8,27.7,28.0,27.5,84,84,84,0.430,23.4,23.6,23.2,7.826,9.4,23,7.9,12.3,0.00089,0.00105,35.8,39.0,20,374,11,39.3,12.06,0.00,0.00
15min,AgWx,beryljct,423,20JAN2018:15:00:00,34.8,14.76,29.1,27.7,27.8,28.2,27.5,84,84,83,0.428,23.5,23.8,23.2,12.25,10.0,24,7.7,15.0,0.00080,0.00096,35.8,38.9,21,341,0,39.9,12.06,0.00,0.00
15min,AgWx,beryljct,423,20JAN2018:15:15:00,35.4,14.72,29.9,27.9,27.8,28.0,27.3,84,84,84,0.433,23.5,23.7,23.0,9.29,11.2,24,7.3,16.0,0.00098,0.00116,35.8,38.9,20,423,0,39.9,12.06,0.00,0.00
15min,AgWx,beryljct,423,20JAN2018:15:30:00,36.3,14.71,29.3,27.5,27.8,28.2,27.4,84,84,84,0.427,23.5,23.9,23.2,14.62,13.2,24,6.9,17.3,0.00086,0.00105,35.8,38.8,21,382,0,40.8,12.06,0.00,0.00
15min,AgWx,beryljct,423,20JAN2018:15:45:00,36.1,14,28.8,27.4,27.6,27.8,27.3,84,84,84,0.425,23.3,23.6,23.1,10.65,11.9,32,10,17.4,0.00045,0.00061,35.7,38.8,21,208,0,37.0,12.06,0.00,0.00
15min,AgWx,beryljct,423,20JAN2018:16:00:00,35.4,13.83,28.8,27.3,27.4,27.7,27.1,84,84,84,0.424,23.2,23.5,22.9,11.75,10.3,29,8.0,13.8,0.00031,0.00044,35.6,38.8,21,152,0,35.3,12.06,0.00,0.00
15min,AgWx,beryljct,423,20JAN2018:16:15:00,34.5,13.63,28.3,27.7,27.6,28.0,27.2,85,85,84,0.432,23.6,24.0,23.1,12.89,13.1,22,8.1,17.4,0.00026,0.00041,35.7,38.7,20,127,0,35.5,12.06,0.00,0.00
15min,AgWx,beryljct,423,20JAN2018:16:30:00,33.7,13.45,27.5,27.4,27.6,27.8,27.3,85,85,84,0.428,23.6,23.8,23.2,9.1,11.4,24,8.0,14.2,0.00019,0.00032,35.6,38.7,20,101,0,35.1,12.06,0.00,0.00
15min,AgWx,beryljct,423,20JAN2018:16:45:00,32.9,13.26,27.3,27.1,27.4,27.6,27.0,85,85,84,0.425,23.3,23.6,23.1,12.23,11.0,22,12,16.8,0.00012,0.00025,35.6,38.7,21,78,0,35.3,12.06,0.00,0.00
15min,AgWx,beryljct,423,20JAN2018:17:00:00,32.1,13.12,27.5,27.3,27.1,27.3,26.8,85,85,85,0.429,23.1,23.5,22.9,10.52,10.9,17,10,13.7,0.00005,0.00006,35.5,38.7,21,57,0,35.3,12.06,0.00,0.00
15min,AgWx,beryljct,423,20JAN2018:17:15:00,31.4,13.03,27.4,27.0,27.1,27.3,26.8,85,86,85,0.425,23.3,23.6,23.0,8.31,11.1,12,9.4,15.8,0.00003,0.00004,35.5,38.7,21,33,0,35.4,12.06,0.00,0.00
15min,AgWx,beryljct,423,20JAN2018:17:30:00,30.8,12.98,27.0,26.7,26.9,27.2,26.6,86,86,85,0.419,23.2,23.4,22.8,8.77,10.7,17,9.4,14.6,0.00002,0.00003,35.5,38.6,21,15,0,35.7,12.06,0.00,0.00
15min,AgWx,beryljct,423,20JAN2018:17:45:00,30.3,12.94,27.1,27.0,26.8,27.1,26.6,86,86,85,0.427,23.1,23.4,22.7,11,12.4,360,16,18.1,0.00002,0.00003,35.4,38.6,21,5,0,35.7,12.06,0.00,0.00
15min,AgWx,beryljct,423,20JAN2018:18:00:00,29.8,12.82,26.8,26.7,26.8,27.1,26.6,86,86,85,0.422,23.1,23.4,22.9,7.541,8.6,2.8,17,13.2,-0.00000,0.00000,35.3,38.6,20,2,0,35.7,12.06,0.00,0.00
15min,AgWx,beryljct,423,20JAN2018:18:15:00,29.3,12.91,26.7,26.4,26.8,27.1,26.4,84,86,83,0.408,22.5,23.1,22.2,8.88,8.4,18,9.7,11.9,0.00000,0.00001,35.4,38.5,20,0,0,35.5,12.06,0.00,0.00
15min,AgWx,beryljct,423,20JAN2018:18:30:00,28.9,12.91,26.5,26.6,26.6,26.7,26.4,83,84,82,0.406,22.0,22.3,21.7,9.1,9.8,23,7.5,12.7,0.00002,0.00003,35.4,38.5,20,0,0,35.3,12.06,0.00,0.00
15min,AgWx,beryljct,423,20JAN2018:18:45:00,28.6,12.89,26.2,26.4,26.6,26.9,26.1,82,83,80,0.401,21.7,22.2,21.3,7.256,9.7,24,7.6,14.1,0.00002,0.00003,35.3,38.4,21,0,0,35.4,12.06,0.00,0.00
15min,AgWx,beryljct,423,20JAN2018:19:00:00,28.2,12.88,26.1,26.4,26.3,26.6,26.1,81,83,79,0.384,21.2,21.9,20.7,12.61,10.2,23,7.7,13.8,0.00003,0.00004,35.3,38.4,20,0,0,35.5,12.06,0.00,0.00
15min,AgWx,beryljct,423,20JAN2018:19:15:00,27.9,12.86,25.8,25.8,26.3,26.9,25.8,78,79,77,0.372,20.4,20.8,20.0,8.4,10.9,21,7.2,14.5,0.00005,0.00006,35.3,38.4,21,0,0,35.5,12.06,0.00,0.00
15min,AgWx,beryljct,423,20JAN2018:19:30:00,27.5,12.85,25.3,25.7,25.9,26.2,25.6,79,80,78,0.375,20.2,20.4,19.9,8.13,9.8,21,6.9,11.9,0.00004,0.00005,35.3,38.4,21,0,0,35.5,12.06,0.00,0.00
15min,AgWx,beryljct,423,20JAN2018:19:45:00,27.2,12.7,25.3,25.7,25.7,26.3,25.5,80,81,80,0.376,20.4,21.0,20.1,7.782,9.0,21,5.7,11.1,0.00002,0.00003,35.3,38.3,20,0,0,35.6,12.06,0.00,0.00
15min,AgWx,beryljct,423,20JAN2018:20:00:00,26.8,12.81,24.8,25.4,25.5,25.8,25.3,80,81,80,0.376,20.3,20.5,20.0,6.204,8.3,21,5.8,10.4,0.00002,0.00003,35.2,38.3,21,0,0,35.5,12.06,0.00,0.00
15min,AgWx,beryljct,423,20JAN2018:20:15:00,26.4,12.81,23.9,24.5,24.6,25.4,23.9,83,84,81,0.375,20.1,20.4,19.8,5.152,4.7,28,7.5,6.9,-0.00004,-0.00004,35.2,38.3,21,0,0,35.7,12.06,0.00,0.00
15min,AgWx,beryljct,423,20JAN2018:20:30:00,26.0,12.8,24.0,24.6,24.6,24.8,24.2,83,84,83,0.373,20.2,20.5,19.8,4.362,4.8,21,6.7,6.0,-0.00004,-0.00003,35.2,38.2,21,0,0,35.8,12.06,0.00,0.00
15min,AgWx,beryljct,423,20JAN2018:20:45:00,25.8,12.79,24.5,25.1,25.0,25.3,24.6,81,83,80,0.369,20.0,20.3,19.6,7.278,7.0,20,7.2,9.4,0.00000,0.00001,35.2,38.2,21,0,0,35.4,12.06,0.00,0.00
15min,AgWx,beryljct,423,20JAN2018:21:00:00,25.5,12.78,24.1,24.6,24.9,25.3,24.4,80,81,80,0.363,19.7,20.0,19.3,5.217,6.0,13,9.9,8.9,-0.00001,-0.00000,35.2,38.2,20,0,0,35.7,12.06,0.00,0.00
15min,AgWx,beryljct,423,20JAN2018:21:15:00,25.3,12.64,23.4,24.2,23.9,24.9,22.9,83,86,80,0.377,19.4,20.4,19.0,6.774,3.3,56,44,8.7,-0.00006,-0.00007,35.2,38.2,20,0,0,35.6,12.06,0.00,0.00
15min,AgWx,beryljct,423,20JAN2018:21:30:00,25.1,12.75,23.4,24.1,24.7,25.3,24.0,80,85,78,0.363,19.5,20.3,19.0,0.482,5.3,23,18,8.9,-0.00002,-0.00001,35.0,38.1,21,0,0,35.7,12.06,0.00,0.00
15min,AgWx,beryljct,423,20JAN2018:21:45:00,24.8,12.73,23.2,24.1,24.0,24.3,23.7,82,83,82,0.359,19.4,19.7,19.1,2.806,2.0,4.6,27,3.9,-0.00010,-0.00012,35.1,38.1,21,0,0,35.6,12.06,0.00,0.00
15min,AgWx,beryljct,423,20JAN2018:22:00:00,24.4,12.71,21.8,22.5,23.1,24.0,22.5,83,84,82,0.347,18.8,19.2,18.3,1.666,2.1,19,18,3.1,-0.00010,-0.00012,35.1,38.1,21,0,0,35.7,12.06,0.00,0.00
15min,AgWx,beryljct,423,20JAN2018:22:15:00,23.9,12.69,22.1,22.4,22.3,22.6,21.9,85,85,84,0.348,18.4,18.9,18.0,3.573,3.0,321,18,4.3,-0.00007,-0.00008,35.0,38.1,21,0,0,35.6,12.06,0.00,0.00
15min,AgWx,beryljct,423,20JAN2018:22:30:00,23.4,12.66,20.3,20.9,21.6,22.4,20.9,86,87,84,0.331,18.0,18.5,17.3,3.595,3.4,318,7.1,4.0,-0.00007,-0.00007,35.1,38.1,21,0,0,35.4,12.06,0.00,0.00
15min,AgWx,beryljct,423,20JAN2018:22:45:00,22.5,12.64,18.9,19.1,19.0,20.8,18.0,86,88,84,0.311,15.5,17.2,14.4,3.814,3.7,347,35,6.0,-0.00005,-0.00006,35.0,38.0,21,0,0,35.6,12.06,0.00,0.00
15min,AgWx,beryljct,423,20JAN2018:23:00:00,21.7,12.49,19.6,19.9,19.8,20.7,19.2,88,88,87,0.325,16.8,17.6,16.0,4.428,3.5,6.0,27,4.7,-0.00006,-0.00007,34.9,38.0,20,0,0,35.6,12.06,0.00,0.00
15min,AgWx,beryljct,423,20JAN2018:23:15:00,20.9,12.46,16.4,16.3,18.1,20.2,16.0,87,89,84,0.279,14.8,17.1,12.7,5.7,4.8,339,17,6.0,-0.00004,-0.00004,34.9,37.9,21,0,0,35.5,12.06,0.00,0.00
15min,AgWx,beryljct,423,20JAN2018:23:30:00,19.5,12.58,11.2,11.5,13.2,16.8,10.8,88,90,87,0.229,10.5,14.0,7.6,2.674,3.9,321,11,5.7,-0.00005,-0.00005,34.9,37.9,21,0,0,35.7,12.06,0.00,0.00
15min,AgWx,beryljct,423,20JAN2018:23:45:00,17.9,12.58,13.3,12.4,11.7,12.5,11.0,90,90,89,0.238,9.3,10.0,8.5,4.165,3.1,322,6.5,4.8,-0.00006,-0.00007,34.9,37.9,21,0,0,35.5,12.06,0.00,0.00
15min,AgWx,bigpiney,439,20JAN2018:00:00:00,27.7,12.81,25.1,24.6,24.6,24.9,24.4,68,70,65,0.292,15.6,16.3,14.4,3.398,2.7,294,7.5,4.0,0.00007,0.00009,31.1,31.7,15,0,0,0.0,.,0.00,0.00
15min,AgWx,bigpiney,439,20JAN2018:00:15:00,27.5,12.82,23.9,23.8,24.6,25.1,23.8,64,68,61,0.298,14.2,15.0,13.4,4.823,3.5,299,19,5.2,0.00009,0.00012,31.1,31.8,15,0,0,0.0,.,0.00,0.00
15min,AgWx,bigpiney,439,20JAN2018:00:30:00,27.3,12.82,25.0,24.5,24.3,24.7,23.7,66,69,62,0.293,14.4,14.9,13.7,1.841,3.3,262,11,7.0,0.00008,0.00011,31.1,31.8,15,0,0,0.0,.,0.00,0.00
15min,AgWx,bigpiney,439,20JAN2018:00:45:00,27.2,12.81,24.4,24.4,24.2,24.6,23.8,66,69,65,0.290,14.6,15.1,14.3,2.565,1.8,212,21,2.8,0.00005,0.00007,31.1,31.7,15,0,0,0.0,.,0.00,0.00
15min,AgWx,bigpiney,439,20JAN2018:01:00:00,27.0,12.78,23.3,23.1,23.9,24.5,23.0,67,70,64,0.296,14.4,14.8,14.0,3.595,2.7,206,6.7,3.6,0.00007,0.00010,31.1,31.8,15,0,0,0.0,.,0.00,0.00
15min,AgWx,bigpiney,439,20JAN2018:01:15:00,26.7,12.78,22.6,22.4,22.7,23.1,22.4,72,74,70,0.303,15.0,15.3,14.6,0,1.6,190,18,3.6,0.00003,0.00005,31.1,31.7,15,0,0,0.0,.,0.00,0.00
15min,AgWx,bigpiney,439,20JAN2018:01:30:00,26.3,12.77,23.9,23.3,22.9,23.4,22.3,72,74,69,0.298,15.2,15.6,14.8,2.105,1.3,159,30,3.0,0.00002,0.00004,31.1,31.7,15,0,0,0.0,.,0.00,0.00
15min,AgWx,bigpiney,439,20JAN2018:01:45:00,26.0,12.77,23.6,23.3,23.5,23.8,23.3,68,70,66,0.292,14.4,14.9,14.2,4.735,3.3,210,13,4.8,0.00007,0.00010,31.1,31.8,15,0,0,0.0,.,0.00,0.00
15min,AgWx,bigpiney,439,20JAN2018:02:00:00,25.9,12.76,23.1,22.5,22.5,23.3,22.3,72,74,68,0.295,14.8,15.1,14.4,3.968,3.3,208,6.7,4.2,0.00006,0.00008,31.1,31.7,15,0,0,0.0,.,0.00,0.00
15min,AgWx,bigpiney,439,20JAN2018:02:15:00,25.6,12.75,23.1,22.8,22.8,23.2,22.4,71,72,69,0.298,14.6,14.9,14.3,2.696,3.3,208,3.9,4.0,0.00007,0.00009,31.1,31.7,15,0,0,0.0,.,0.00,0.00
15min,AgWx,bigpiney,439,20JAN2018:02:30:00,25.3,12.75,21.9,21.5,22.5,22.8,21.5,72,73,71,0.290,14.8,15.1,14.3,2.192,2.3,227,12,2.8,0.00005,0.00006,31.1,31.7,16,0,0,0.0,.,0.00,0.00
15min,AgWx,bigpiney,439,20JAN2018:02:45:00,25.0,12.74,21.2,20.8,21.1,21.8,20.5,76,78,73,0.299,14.7,15.1,14.1,3.661,3.4,239,6.3,4.4,0.00005,0.00007,31.1,31.7,16,0,0,0.0,.,0.00,0.00
15min,AgWx,bigpiney,439,20JAN2018:03:00:00,24.7,12.73,21.7,21.3,21.3,21.8,20.8,77,78,75,0.303,15.1,15.3,15.0,2.324,2.3,256,6.1,3.7,0.00003,0.00005,31.1,31.7,16,0,0,0.0,.,0.00,0.00
15min,AgWx,bigpiney,439,20JAN2018:03:15:00,24.6,12.72,22.6,22.0,21.7,22.0,21.3,77,78,75,0.302,15.6,16.0,15.2,1.973,2.2,273,8.6,3.6,0.00003,0.00005,31.1,31.7,16,0,0,0.0,.,0.00,0.00
15min,AgWx,bigpiney,439,20JAN2018:03:30:00,24.6,12.71,21.7,21.3,21.6,22.2,21.2,77,80,74,0.307,15.4,15.9,14.8,4.121,3.5,228,11,4.7,0.00005,0.00007,31.1,31.7,16,0,0,0.0,.,0.00,0.00
15min,AgWx,bigpiney,439,20JAN2018:03:45:00,24.6,12.71,22.2,21.8,21.4,21.8,21.2,78,79,76,0.305,15.6,15.9,15.4,1.885,3.4,235,15,4.5,0.00005,0.00006,31.1,31.8,16,0,0,0.0,.,0.00,0.00
15min,AgWx,bigpiney,439,20JAN2018:04:00:00,24.6,12.7,22.6,22.1,22.0,22.3,21.8,75,76,73,0.298,15.2,15.5,14.8,3.661,2.3,272,6.6,3.7,0.00004,0.00006,31.1,31.7,16,0,0,0.0,.,0.00,0.00
15min,AgWx,bigpiney,439,20JAN2018:04:15:00,24.6,12.69,22.7,22.0,22.1,22.3,21.9,73,74,72,0.292,14.8,15.0,14.5,2.368,2.5,278,12,3.9,0.00005,0.00007,31.1,31.7,16,0,0,0.0,.,0.00,0.00
15min,AgWx,bigpiney,439,20JAN2018:04:30:00,24.6,12.68,22.5,22.1,22.1,22.3,22.0,70,72,68,0.276,13.8,14.5,13.1,2.433,1.5,317,14,2.9,0.00003,0.00005,31.1,31.7,16,0,0,0.0,.,0.00,0.00
15min,AgWx,bigpiney,439,20JAN2018:04:45:00,24.6,12.67,21.4,21.2,21.8,22.1,21.2,69,72,67,0.281,13.1,13.5,12.8,4.56,2.3,339,44,4.6,0.00005,0.00007,31.1,31.7,16,0,0,0.0,.,0.00,0.00
15min,AgWx,bigpiney,439,20JAN2018:05:00:00,24.5,12.67,22.0,21.2,21.4,21.7,21.0,71,74,68,0.279,13.4,13.9,12.7,5.174,4.7,23,27,7.2,0.00008,0.00010,31.1,31.8,16,0,0,0.0,.,0.00,0.00
15min,AgWx,bigpiney,439,20JAN2018:05:15:00,24.4,12.67,21.0,20.7,21.2,21.7,20.7,71,73,68,0.281,13.1,13.7,12.5,2.126,2.4,52,19,5.0,0.00005,0.00007,31.0,31.8,16,0,0,0.0,.,0.00,0.00
15min,AgWx,bigpiney,439,20JAN2018:05:30:00,24.2,12.66,21.2,21.0,21.0,21.4,20.7,70,74,67,0.266,12.9,13.7,12.1,2.784,3.4,36,22,6.9,0.00006,0.00008,31.0,31.8,16,0,0,0.0,.,0.00,0.00
15min,AgWx,bigpiney,439,20JAN2018:05:45:00,24.1,12.66,20.8,20.7,21.1,21.3,20.7,69,71,67,0.270,12.5,12.8,12.1,2.609,2.6,21,27,4.3,0.00006,0.00008,31.0,31.8,16,0,0,0.0,.,0.00,0.00
15min,AgWx,bigpiney,439,20JAN2018:06:00:00,23.9,12.66,19.2,20.1,20.5,20.8,20.1,71,72,69,0.263,12.5,12.9,12.1,3.88,1.3,48,31,3.9,0.00002,0.00004,31.0,31.8,16,0,0,0.0,.,0.00,0.00
15min,AgWx,bigpiney,439,20JAN2018:06:15:00,23.5,12.66,20.9,20.3,20.2,20.7,19.4,71,73,70,0.265,12.4,12.7,11.5,0.702,1.0,215,11,3.7,0.00002,0.00003,31.0,31.8,16,0,0,0.0,.,0.00,0.00
15min,AgWx,bigpiney,439,20JAN2018:06:30:00,23.2,12.65,20.1,19.9,20.3,20.9,19.5,71,75,69,0.272,12.5,13.1,11.9,1.425,1.0,149,53,2.3,0.00001,0.00002,31.0,31.7,16,0,0,0.0,.,0.00,0.00
15min,AgWx,bigpiney,439,20JAN2018:06:45:00,22.9,12.64,19.3,19.0,19.3,19.9,18.8,76,78,74,0.278,13.1,13.5,12.7,0,2.1,116,12,3.1,0.00003,0.00004,31.0,31.8,16,0,0,0.0,.,0.00,0.00
15min,AgWx,bigpiney,439,20JAN2018:07:00:00,22.8,12.65,21.2,19.9,19.3,19.9,18.8,76,79,73,0.278,13.1,13.6,12.5,1.118,0.6,274,42,2.7,-0.00000,-0.00000,31.0,31.7,16,0,0,0.0,.,0.00,0.00
15min,AgWx,bigpiney,439,20JAN2018:07:15:00,22.7,12.64,20.2,19.9,19.6,20.4,19.4,78,80,73,0.282,13.9,14.4,12.9,0.921,1.5,281,23,2.2,0.00002,0.00003,31.0,31.7,16,0,0,0.0,.,0.00,0.00
15min,AgWx,bigpiney,439,20JAN2018:07:30:00,22.7,12.63,20.2,19.8,19.8,20.0,19.4,79,80,76,0.289,14.2,14.5,13.6,1.008,0.2,273,22,1.1,-0.00001,-0.00002,31.0,31.7,16,0,0,0.0,.,0.00,0.00
15min,AgWx,bigpiney,439,20JAN2018:07:45:00,22.8,12.64,20.5,20.1,19.9,20.2,19.7,79,80,78,0.295,14.5,14.7,14.1,2.17,1.1,297,40,2.2,0.00001,0.00002,31.0,31.8,16,1,0,0.0,.,0.00,0.00